TimeEST,TemperatureF,Dew PointF,Humidity,Sea Level PressureIn,VisibilityMPH,Wind Direction,Wind SpeedMPH,Gust SpeedMPH,PrecipitationIn,Events,Conditions,WindDirDegrees,DateUTC
12:54 AM,55.9,52.0,87,30.38,10.0,NNE,9.2,-,N/A,,Clear,30,2013-11-06 05:54:00
1:54 AM,55.9,52.0,87,30.36,10.0,NNE,8.1,-,N/A,,Clear,30,2013-11-06 06:54:00
2:54 AM,57.0,53.1,87,30.34,10.0,NNE,9.2,-,N/A,,Clear,30,2013-11-06 07:54:00
3:54 AM,57.0,54.0,89,30.33,10.0,NE,9.2,-,N/A,,Clear,40,2013-11-06 08:54:00
4:54 AM,59.0,54.0,83,30.32,10.0,NNE,6.9,-,N/A,,Mostly Cloudy,30,2013-11-06 09:54:00
5:54 AM,59.0,55.0,87,30.32,10.0,NNE,9.2,-,N/A,,Mostly Cloudy,30,2013-11-06 10:54:00
6:54 AM,59.0,55.0,87,30.33,10.0,NE,6.9,-,N/A,,Mostly Cloudy,40,2013-11-06 11:54:00
7:54 AM,62.1,55.9,80,30.32,10.0,NE,13.8,-,N/A,,Mostly Cloudy,50,2013-11-06 12:54:00
8:54 AM,64.0,55.9,75,30.32,10.0,ENE,15.0,21.9,N/A,,Mostly Cloudy,60,2013-11-06 13:54:00
9:54 AM,64.9,57.0,75,30.33,10.0,ENE,13.8,-,N/A,,Overcast,60,2013-11-06 14:54:00
10:54 AM,64.0,59.0,84,30.32,5.0,ENE,11.5,-,0.00,Rain,Light Rain,70,2013-11-06 15:54:00
11:06 AM,62.1,59.0,90,30.33,2.5,ENE,9.2,-,0.01,Rain,Light Rain,60,2013-11-06 16:06:00
11:15 AM,63.0,60.1,90,30.33,4.0,NE,11.5,-,0.01,Rain,Light Rain,50,2013-11-06 16:15:00
11:27 AM,63.0,61.0,93,30.32,8.0,NE,9.2,-,0.01,,Overcast,50,2013-11-06 16:27:00
11:54 AM,66.0,62.1,87,30.29,10.0,NE,11.5,-,0.01,,Overcast,40,2013-11-06 16:54:00
12:54 PM,66.9,61.0,81,30.26,10.0,NE,9.2,-,N/A,,Overcast,50,2013-11-06 17:54:00
1:01 PM,66.9,61.0,81,30.27,10.0,ENE,9.2,-,N/A,,Overcast,70,2013-11-06 18:01:00
1:54 PM,66.0,62.1,87,30.25,6.0,ENE,11.5,-,0.00,Rain,Light Rain,70,2013-11-06 18:54:00
2:01 PM,66.0,62.1,87,30.25,5.0,ENE,9.2,-,0.01,Rain,Light Rain,70,2013-11-06 19:01:00
2:23 PM,64.9,62.1,90,30.25,3.0,ENE,13.8,-,0.01,Rain,Light Rain,60,2013-11-06 19:23:00
2:35 PM,64.9,62.1,90,30.24,2.0,ENE,13.8,-,0.03,Rain,Rain,60,2013-11-06 19:35:00
2:41 PM,64.9,63.0,93,30.24,3.0,ENE,12.7,-,0.03,Rain,Light Rain,60,2013-11-06 19:41:00
2:54 PM,66.0,63.0,90,30.23,7.0,ENE,10.4,-,0.03,,Overcast,60,2013-11-06 19:54:00
3:54 PM,64.9,63.0,93,30.22,9.0,ENE,5.8,-,0.00,Rain,Light Rain,70,2013-11-06 20:54:00
4:01 PM,64.9,63.0,93,30.23,6.0,ENE,6.9,-,0.01,Rain,Light Rain,70,2013-11-06 21:01:00
4:54 PM,64.0,63.0,96,30.21,7.0,East,6.9,-,0.02,,Overcast,80,2013-11-06 21:54:00
5:54 PM,64.0,63.0,96,30.21,6.0,ENE,6.9,-,0.02,Rain,Light Rain,60,2013-11-06 22:54:00
6:01 PM,64.0,63.0,96,30.22,5.0,ENE,5.8,-,0.00,Rain,Light Rain,60,2013-11-06 23:01:00
6:21 PM,64.0,62.1,93,30.22,3.0,NE,6.9,-,0.04,Rain,Rain,40,2013-11-06 23:21:00
6:44 PM,64.0,63.0,96,30.22,10.0,NNE,3.5,-,0.05,,Overcast,30,2013-11-06 23:44:00
6:54 PM,64.0,63.0,96,30.21,6.0,NNE,4.6,-,0.06,Rain,Light Rain,30,2013-11-06 23:54:00
7:20 PM,64.0,63.0,96,30.21,4.0,NE,5.8,-,0.03,Rain,Light Rain,40,2013-11-07 00:20:00
7:54 PM,64.0,63.0,96,30.19,6.0,NE,5.8,-,0.04,Rain,Light Rain,40,2013-11-07 00:54:00
8:29 PM,64.0,63.0,96,30.19,10.0,NE,3.5,-,0.00,,Overcast,50,2013-11-07 01:29:00
8:54 PM,64.0,62.1,93,30.18,10.0,ENE,4.6,-,0.00,,Overcast,60,2013-11-07 01:54:00
9:24 PM,64.0,62.1,93,30.18,10.0,NE,6.9,-,N/A,,Overcast,50,2013-11-07 02:24:00
9:52 PM,64.4,62.6,94,30.17,10.0,NE,3.5,-,N/A,,Overcast,40,2013-11-07 02:52:00
9:54 PM,64.0,62.1,93,30.16,10.0,NNE,3.5,-,N/A,,Overcast,30,2013-11-07 02:54:00
10:27 PM,64.0,62.1,93,30.16,9.0,East,5.8,-,N/A,,Overcast,90,2013-11-07 03:27:00
10:54 PM,63.0,62.1,97,30.14,5.0,ENE,5.8,-,N/A,,Overcast,70,2013-11-07 03:54:00
11:07 PM,63.0,62.1,97,30.14,1.8,ENE,5.8,-,N/A,,Overcast,70,2013-11-07 04:07:00
11:23 PM,63.0,62.1,97,30.14,3.0,East,4.6,-,N/A,,Overcast,90,2013-11-07 04:23:00
11:54 PM,63.0,62.1,97,30.13,8.0,ENE,4.6,-,N/A,,Overcast,70,2013-11-07 04:54:00